Regional Weather Roundup
Issued by NWS

Home | Current Version | Previous Version | Graphics & Text | Print | Product List | Glossary On
Versions: 1 2 3 4 5 6 7 8 9 10 11 12 13 14 15 16 17 18 19 20 21 22 23 24 25 26 27 28 29 30 31 32 33 34 35 36 37 38 39 40 41 42 43 44 45 46 47 48 49 50
000
ASUS43 KIND 192209
RWRIN

WEATHER ROUNDUP FOR INDIANA
NATIONAL WEATHER SERVICE INDIANAPOLIS IN
500 PM EST SUN NOV 19 2017

NOTE: "FAIR" INDICATES FEW OR NO CLOUDS BELOW 12,000 FEET WITH NO
SIGNIFICANT WEATHER AND/OR OBSTRUCTIONS TO VISIBILITY.

* - STATION DOES NOT REPORT WEATHER SUCH AS PRECIPITATION OR FOG.

+ - STATION NOT QUALITY CONTROLLED BY THE NATIONAL WEATHER SERVICE.
    USE DATA WITH CAUTION...ESPECIALLY DEWPOINT AND RELATIVE
    HUMIDITY OBSERVATIONS.

INZ001>003-010>013-019-020-192300-
NORTHWEST INDIANA

CITY           SKY/WX    TMP DP  RH WIND       PRES   REMARKS
GARY /AIRPORT/ MOCLDY    36  16  44 W14       30.05S WCI  27
KNOX *+        CLEAR     32  23  69 W12       30.03S WCI  23
LA PORTE +     CLEAR     32  19  59 W5        30.03S WCI  27
MICHIGAN CITY+ CLEAR     32  19  59 W12       30.04S WCI  23
MONTICELLO +   PTCLDY    32  22  68 W10G16    30.06S WCI  24
RENSSELAER +   CLEAR     32  21  64 W14       30.07R WCI  22
VALPARAISO     CLEAR     34  19  54 W13       30.04R WCI  25

$$

LMZ046-743>745-192300-
SOUTHERN LAKE MICHIGAN

STATION/POSITION TIME  TEMP    WIND        PRES    WAVE
                       AIR SEA DIR/SP/G            HT
                 (UTC) (F)     (DEG/KT/KT) (MB)    (FT)
BURNS HARBOR     2140   35     270/ 14/ 17 1017.6S
MICHIGAN CITY    2140   35     260/ 19/ 21   N/A

$$

INZ004-005-014>016-021>024-192300-
NORTH CENTRAL INDIANA

CITY           SKY/WX    TMP DP  RH WIND       PRES   REMARKS
ELKHART        CLOUDY    32  21  64 W15       30.00S WCI  22
GOSHEN         MOCLDY    32  21  64 W9        30.00S WCI  24
LOGANSPORT +   PTCLDY    32  23  69 W12       30.06F WCI  23
PERU/GRISSOM   PTCLDY    31  24  75 W13       30.05R WCI  21
ROCHESTER +    PTCLDY    34  23  64 W9        30.04R WCI  26
SOUTH BEND     MOCLDY    32  22  66 W13       30.02R WCI  22
WARSAW +       MOCLDY    32  23  69 W12       30.01S WCI  23

$$

INZ006>009-017-018-025>027-192300-
NORTHEAST INDIANA

CITY           SKY/WX    TMP DP  RH WIND       PRES   REMARKS
AUBURN +       PTCLDY    32  21  64 W14G21    30.00S WCI  22
FORT WAYNE     MOCLDY    34  24  67 W17       30.01R WCI  23
HUNTINGTON +   CLOUDY    32  22  67 W10       30.03R WCI  23
KENDALLVILLE + MOCLDY    32  21  64 NW9G16    29.99R WCI  24

$$

INZ028-029-035-036-043>045-051>053-192300-
WEST CENTRAL INDIANA

CITY           SKY/WX    TMP DP  RH WIND       PRES   REMARKS
CRAWFORDSVL +  CLOUDY    30  23  74 W9        30.09F WCI  22
GREENCASTLE +  CLEAR     32  23  69 W6        30.10F WCI  26
LAFAYETTE      PTCLDY    31  23  72 W12       30.08F WCI  22
TERRE HAUTE    PTCLDY    36  21  54 W13       30.13F WCI  27

$$

INZ030>032-037>040-046>048-054>057-064-065-192300-
CENTRAL INDIANA

CITY           SKY/WX    TMP DP  RH WIND       PRES   REMARKS
CP ATTERBURY + CLEAR     34  23  64 W10       30.12R WCI  26
COLUMBUS       CLEAR     36  21  55 W12       30.12R WCI  27
FISHERS *+     PTCLDY    28  25  86 W7        30.09S WCI  21
FRANKFORT +    CLEAR     33  26  75 W14G20    30.08F WCI  24
GREENWOOD *+   CLEAR     35  24  65 W7G18     30.10R WCI  29
INDIANAPOLIS   MOCLDY    32  22  66 W12       30.10R WCI  23
-EAGLE CREEK   PTCLDY    32  21  64 W12       30.08S WCI  23
KOKOMO +       MOCLDY    31  24  75 W16       30.07R WCI  20
MARION +       CLOUDY    30  24  78 W21       30.07R WCI  17
MT COMFORT *+  PTCLDY    28  25  86 W13       30.09S WCI  18
SHELBYVILLE    CLEAR     33  21  61 W10       30.10R WCI  25
ZIONSVILLE +   PTCLDY    29  23  77 W8G16     30.08S WCI  21

$$

INZ033-034-041-042-049-050-058-059-192300-
EAST CENTRAL INDIANA

CITY           SKY/WX    TMP DP  RH WIND       PRES   REMARKS
MUNCIE         CLOUDY    32  22  66 W18       30.06R WCI  20
RICHMOND +     CLOUDY    30  25  80 W16       30.06R WCI  19

$$

INZ060-061-067>069-081>083-085>088-192300-
SOUTHWEST INDIANA

CITY           SKY/WX    TMP DP  RH WIND       PRES   REMARKS
EVANSVILLE     CLEAR     40  21  46 VRB6G17   30.18R WCI  36
HUNTINGBURG +  CLEAR     38  23  55 W9        30.16R WCI  31
WASHINGTON +   CLEAR     37  20  48 W10       30.16R WCI  30

$$

INZ062-063-066-070>080-084-089>092-192300-
SOUTH CENTRAL AND SOUTHEAST INDIANA

CITY           SKY/WX    TMP DP  RH WIND       PRES   REMARKS
BEDFORD +      PTCLDY    36  21  55 W6        30.12R WCI  31
BLOOMINGTON    PTCLDY    35  22  58 W8        30.11R WCI  29
MADISON *+     CLEAR     36  23  60 W7        30.12R WCI  30
NORTH VERNON + CLEAR     34  23  64 W13G18    30.11R WCI  25
SEYMOUR +      CLEAR     37  23  56 W10       30.13  WCI  30

$$




USA.gov is the U.S. government's official web portal to all federal, state and local government web resources and services.